Location: Crescent
(42.8242°N, 73.7329°W)
Time: 19:48:39
(UTC+00:00)

Courier 1B - All Passes

Search period start: 15 February 2026 00:00
Search period end: 25 February 2026 00:00
Orbit: 962 x 1208 km, 28.3° (Epoch: 15 February)

Date Brightness Start Highest point End Pass type
(mag) Time Alt. Az. Time Alt. Az. Time Alt. Az.
15 Feb - 00:10:23 10° SSE 00:10:55 10° SSE 00:11:27 10° SSE visible
15 Feb - 01:58:18 10° SSW 02:03:53 22° SSE 02:09:35 10° ESE visible
15 Feb - 03:50:51 10° SW 03:57:10 27° S 04:03:31 10° SE night (unlit)
15 Feb - 05:44:56 10° WSW 05:50:27 21° SSW 05:55:55 10° SSE night (unlit)
16 Feb - 01:05:08 10° SSW 01:10:08 19° SSE 01:15:14 10° ESE visible
16 Feb - 02:57:08 10° SW 03:03:20 27° S 03:09:39 10° ESE visible
16 Feb - 04:50:45 10° WSW 04:56:40 24° SSW 05:02:34 10° SE night (unlit)
16 Feb - 06:46:53 10° SW 06:49:44 12° SSW 06:52:35 10° S night (unlit)
17 Feb - 00:12:20 10° SSW 00:16:25 16° SSE 00:20:37 10° SE visible
17 Feb - 02:03:32 10° SW 02:09:32 26° S 02:15:41 10° ESE visible
17 Feb - 03:56:45 10° WSW 04:02:51 26° S 04:09:01 10° SE night (unlit)
17 Feb - 05:51:44 10° SW 05:56:02 16° SSW 06:00:18 10° SSE night (unlit)
17 Feb - 23:20:12 10° S 23:22:46 12° SSE 23:25:24 10° SE visible
18 Feb - 01:10:06 10° SW 01:15:45 23° SSE 01:21:34 10° ESE visible
18 Feb - 03:02:53 10° WSW 03:09:02 27° S 03:15:18 10° SE visible
18 Feb - 04:57:12 10° WSW 05:02:17 19° SSW 05:07:23 10° SSE night (unlit)
19 Feb - 00:16:52 10° SSW 00:22:01 21° SSE 00:27:20 10° ESE visible
19 Feb - 02:09:09 10° SW 02:15:13 27° S 02:21:28 10° SE visible
19 Feb - 04:02:58 10° WSW 04:08:30 22° SSW 04:14:07 10° SSE night (unlit)
19 Feb - 23:23:54 10° SSW 23:28:19 17° SSE 23:32:53 10° ESE visible
20 Feb - 01:15:33 10° SW 01:21:26 26° S 01:27:32 10° ESE visible
20 Feb - 03:08:56 10° WSW 03:14:43 24° S 03:20:38 10° SE visible
20 Feb - 05:04:34 10° SW 05:07:50 13° SSW 05:11:09 10° S night (unlit)
20 Feb - 22:31:23 10° S 22:34:41 14° SSE 22:38:05 10° SE daylight
21 Feb - 00:22:06 10° SW 00:27:40 24° S 00:33:29 10° ESE visible
21 Feb - 02:15:04 10° WSW 02:20:55 25° S 02:26:58 10° SE visible
21 Feb - 04:09:44 10° SW 04:14:07 16° SSW 04:18:33 10° SSE night (unlit)
21 Feb - 21:40:25 10° SSE 21:41:06 10° SSE 21:41:47 10° SSE daylight
21 Feb - 23:28:48 10° SW 23:33:57 22° SSE 23:39:19 10° ESE visible
22 Feb - 01:21:20 10° SW 01:27:08 26° S 01:33:12 10° SE visible
22 Feb - 03:15:23 10° WSW 03:20:22 19° SSW 03:25:28 10° SSE visible
22 Feb - 22:35:44 10° SSW 22:40:18 19° SSE 22:45:01 10° ESE daylight
23 Feb - 00:27:43 10° SW 00:33:23 25° S 00:39:18 10° SE visible
23 Feb - 02:21:18 10° WSW 02:26:37 21° SSW 02:32:06 10° SSE visible
23 Feb - 04:18:42 10° SSW 04:19:40 10° SSW 04:20:39 10° SSW night (unlit)
23 Feb - 21:42:57 10° SSW 21:46:40 15° SSE 21:50:30 10° SE daylight
23 Feb - 23:34:14 10° SW 23:39:39 24° S 23:45:20 10° ESE visible
24 Feb - 01:27:24 10° WSW 01:32:52 23° S 01:38:32 10° SE visible
24 Feb - 03:22:42 10° SW 03:25:58 13° SSW 03:29:18 10° S visible
24 Feb - 20:50:46 10° S 20:53:06 12° SSE 20:55:27 10° SE daylight
24 Feb - 22:40:53 10° SW 22:45:58 22° S 22:51:17 10° ESE daylight
